Погода в Бисере

Россия / Пермский край     58°30′43″N   58°52′37″E
темп.,
°C
ветер,
м/с
пор.,
м/с
влажн.,
%
обл.,
%
осадки,
мм/ч
давл.,
гПа
погр.,
м
5 декабря, вс
вс523:000юз71598100 4.8 10041045
02:000юз51198100 2.4 1004889
05:00−1зюз4895100 3.9 1006691
08:00−4зюз399499 0.3 1007448
11:00−4зюз3893100 0.6 1009774
14:00−4зюз379298 0.2 1010664
17:00−7зюз3895100 0.4 1012384
20:00−8ююз2797100 0.2 1013274
6 декабря, пн
пн623:00−10зюз41194100 0.8 1015670
02:00−17зсз389583 0.1 1018348
05:00−20з279981 0.1 1020184
08:00−23з1110046 0.0 102122
11:00−22зсз12975 0.0 102368
14:00−18з23876 0.0 1023213
17:00−21з26965 0.0 1024142
20:00−24з2110026 0.0 102627
7 декабря, вт
вт723:00−25з2210024 0.0 102837
02:00−24з229927 0.0 102940
05:00−23зюз21010090 0.0 1031176
08:00−21з4149877 0.0 1031287
11:00−21з313967 0.0 1032239
14:00−17з311906 0.0 1033280
17:00−19з269741 0.0 1035126
20:00−23зюз2110094 0.0 103730
8 декабря, ср
ср823:00−23зюз21100100 0.0 103928
02:00−23з21100100 0.0 103923
05:00−19зюз119889 0.0 103827
08:00−16зюз1194100 0.0 103720
11:00−12ююз1279100 0.0 103666
14:00−9ююв1780100 0.0 1034222
17:00−8ююв21296100 0.7 1032532
20:00−7ю41295100 2.2 1029596
9 декабря, чт
чт923:00−6юз41396100 4.0 1027549
02:00−3зюз51595100 1.7 1026717
05:00−2зюз51597100 1.7 1027676
08:00−2юз51496100 0.3 1028498
11:00−3юз51498100 0.4 1029463
14:00−2зюз41397100 0.0 1029390
17:00−3зюз41296100 0.0 1031357
20:00−5зюз31195100 0.0 1031263